TimeCDT,TemperatureF,Dew PointF,Humidity,Sea Level PressureIn,VisibilityMPH,Wind Direction,Wind SpeedMPH,Gust SpeedMPH,PrecipitationIn,Events,Conditions,WindDirDegrees,DateUTC
12:53 AM,42.1,24.1,49,30.34,10.0,South,6.9,-,N/A,,Clear,180,2013-03-27 05:53:00
1:53 AM,41.0,25.0,53,30.32,10.0,SSW,3.5,-,N/A,,Clear,200,2013-03-27 06:53:00
2:53 AM,30.9,26.1,82,30.32,10.0,Calm,Calm,-,N/A,,Clear,0,2013-03-27 07:53:00
3:53 AM,30.9,27.0,85,30.31,10.0,Calm,Calm,-,N/A,,Clear,0,2013-03-27 08:53:00
4:53 AM,32.0,27.0,82,30.30,10.0,Calm,Calm,-,N/A,,Clear,0,2013-03-27 09:53:00
5:53 AM,30.0,26.1,85,30.30,10.0,Calm,Calm,-,N/A,,Clear,0,2013-03-27 10:53:00
6:53 AM,32.0,27.0,82,30.31,10.0,Calm,Calm,-,N/A,,Clear,0,2013-03-27 11:53:00
7:53 AM,33.1,28.9,85,30.32,10.0,Calm,Calm,-,N/A,,Partly Cloudy,0,2013-03-27 12:53:00
8:53 AM,43.0,30.9,62,30.32,10.0,Calm,Calm,-,N/A,,Partly Cloudy,0,2013-03-27 13:53:00
9:53 AM,54.0,36.0,51,30.32,10.0,South,9.2,-,N/A,,Partly Cloudy,170,2013-03-27 14:53:00
10:53 AM,61.0,37.9,42,30.32,10.0,South,17.3,25.3,N/A,,Scattered Clouds,190,2013-03-27 15:53:00
11:53 AM,63.0,37.0,38,30.30,10.0,South,16.1,20.7,N/A,,Mostly Cloudy,170,2013-03-27 16:53:00
12:53 PM,66.9,37.0,33,30.28,10.0,South,17.3,23.0,N/A,,Mostly Cloudy,190,2013-03-27 17:53:00
1:53 PM,69.1,39.9,35,30.25,10.0,SSW,12.7,21.9,N/A,,Mostly Cloudy,200,2013-03-27 18:53:00
2:53 PM,68.0,41.0,37,30.23,10.0,South,15.0,24.2,N/A,,Overcast,170,2013-03-27 19:53:00
3:53 PM,69.1,44.1,40,30.20,10.0,SSE,15.0,23.0,N/A,,Overcast,160,2013-03-27 20:53:00
4:53 PM,69.1,45.0,42,30.17,10.0,SSE,17.3,25.3,N/A,,Mostly Cloudy,160,2013-03-27 21:53:00
5:53 PM,66.9,45.0,45,30.17,10.0,South,16.1,23.0,N/A,,Overcast,170,2013-03-27 22:53:00
6:53 PM,66.0,44.1,45,30.17,10.0,South,18.4,-,N/A,,Overcast,180,2013-03-27 23:53:00
7:53 PM,64.9,44.1,47,30.17,10.0,South,13.8,-,N/A,,Overcast,170,2013-03-28 00:53:00
8:53 PM,62.1,44.1,52,30.18,10.0,South,11.5,-,N/A,,Scattered Clouds,170,2013-03-28 01:53:00
9:53 PM,62.1,45.0,53,30.18,10.0,South,17.3,21.9,N/A,,Overcast,170,2013-03-28 02:53:00
10:53 PM,60.1,46.9,62,30.19,10.0,South,10.4,-,N/A,,Mostly Cloudy,170,2013-03-28 03:53:00
11:53 PM,57.9,48.0,70,30.19,10.0,South,8.1,-,N/A,,Mostly Cloudy,180,2013-03-28 04:53:00